Content
SEND FEEDBACK

Daily
Averages
Monthly
Summary
United States of America

AURORA, ILLINOIS


Home > North America > United States > Illinois
Elevation: 202 meters     Latitude: 41 45N     Longitude: 088 20W

WEATHER
 
SELECT A DAY
Number of Records: 188,171;   Date Range: 1/1/95 - 10/23/14
 
SHARE

PRINT THIS DATA

[ ← Previous Day ]
WEATHER ALMANAC - 31 JANUARY, 2013
[ Next Day → ]
[ °F ]   °C
Weather ElementAverageHighLow
Temperature-10.8 °C-7 °C (1:14 am)-16.1 °C (11:52 pm)
Dewpoint-14.4 °C-11 °C (1:14 am)-19.4 °C (10:52 pm)
Humidity75.5 %86 % (8:18 am)70 % (3:52 pm)
Barometer1012.9 hPa1023.4 hPa (11:52 pm)1005.1 hPa (1:14 am)
Wind Speed36.7 km/h44.4 km/h (7:21 am)
Wind Gust57.5 km/h (1:52 am)
Weather ElementAverage
Visibility11.4 km
Wind DirectionWNW (278.3 °)

Weather ElementTotal
Precipitation---
Heating Degree Days29.9 (Base 18.3)
Averaged from 41 records on 31 January, 2013
WEATHER CONDITIONS BREAKOUT
WIND DIRECTION BREAKOUT
WEATHER BY HOUR - 31 JANUARY, 2013
[ °F ]   °C
Local TimeTemperatureDewpointHumidityBarometerVisibilityWind DirectionWind SpeedGust SpeedPrecipitationEventsConditions
1:14 AM-7 °C-11 °C74 %1005.1 hPa8 kmWNW (290°)38.9 km/h0 mmSnowLight Snow
1:37 AM-8 °C-12 °C73 %1005.4 hPa16.1 kmWest (280°)38.9 km/h50.1 km/h0 mmOvercast
1:52 AM-7.8 °C-12.2 °C71 %1006.8 hPa16.1 kmWest (280°)42.6 km/h57.5 km/h0 mmOvercast
1:59 AM-8 °C-12 °C73 %1005.8 hPa16.1 kmWest (280°)37 km/h55.5 km/hOvercast
2:48 AM-8 °C-12 °C73 %1006.4 hPa11.3 kmWest (280°)33.3 km/h0 mmSnowLight Snow
2:52 AM-7.8 °C-11.1 °C78 %1007.1 hPa11.3 kmWest (280°)27.8 km/h44.4 km/h0 mmSnowLight Snow
3:52 AM-8.3 °C-11.7 °C77 %1007.5 hPa14.5 kmWest (280°)38.9 km/h57.5 km/h0 mmOvercast
4:52 AM-8.3 °C-11.7 °C77 %1008.1 hPa16.1 kmWest (280°)42.6 km/h48.1 km/h0 mmOvercast
5:10 AM-8 °C-12 °C73 %1007.1 hPa11.3 kmWest (270°)35.2 km/h46.3 km/h0 mmSnowLight Snow
5:52 AM-8.3 °C-11.7 °C77 %1008.5 hPa14.5 kmWest (270°)33.3 km/h0 mmOvercast
6:22 AM-9 °C-12 °C79 %1007.8 hPa4 kmWest (270°)33.3 km/h46.3 km/h0 mmSnowLight Snow
6:43 AM-9 °C-12 °C79 %1008.1 hPa3.2 kmWest (280°)29.6 km/h50.1 km/h0 mmSnowLight Snow
6:52 AM-8.9 °C-11.7 °C81 %1009.5 hPa4.8 kmWest (270°)38.9 km/h46.3 km/h0 mmSnowLight Snow
7:14 AM-9 °C-12 °C79 %1008.8 hPa3.2 kmWest (270°)38.9 km/h46.3 km/h0 mmSnowLight Snow
7:21 AM-9 °C-13 °C73 %1008.8 hPa4.8 kmWest (270°)44.4 km/h51.8 km/h0 mmSnowLight Snow
7:52 AM-10 °C-13.3 °C77 %1010.5 hPa14.5 kmWest (280°)29.6 km/h0 mmMostly Cloudy
8:18 AM-10 °C-12 °C86 %1009.5 hPa2.9 kmWest (270°)35.2 km/h42.6 km/h0 mmSnowLight Snow
8:22 AM-10 °C-13 °C79 %1009.5 hPa4.8 kmWest (270°)37 km/h42.6 km/h0 mmSnowLight Snow
8:52 AM-10.6 °C-13.3 °C81 %1011.5 hPa2.9 kmWest (280°)31.5 km/h42.6 km/h0 mmSnowLight Snow
9:07 AM-11 °C-13 °C85 %1010.5 hPa4.8 kmWest (270°)31.5 km/h0 mmSnowLight Snow
9:52 AM-10.6 °C-13.9 °C77 %1012.2 hPa9.7 kmWest (270°)33.3 km/h0 mmHaze
10:52 AM-10.6 °C-13.9 °C77 %1012.9 hPa9.7 kmWest (270°)35.2 km/h42.6 km/h0 mmHaze
11:52 AM-10 °C-13.3 °C77 %1013.5 hPa14.5 kmWest (270°)37 km/h46.3 km/hMostly Cloudy
12:52 PM-10 °C-13.9 °C74 %1013.9 hPa14.5 kmWest (270°)29.6 km/h46.3 km/h0 mmOvercast
1:52 PM-10.6 °C-14.4 °C74 %1014.2 hPa9.7 kmWest (270°)38.9 km/h44.4 km/h0 mmSnowLight Snow
2:52 PM-10.6 °C-14.4 °C74 %1014.6 hPa14.5 kmWest (270°)35.2 km/h46.3 km/h0 mmOvercast
3:52 PM-11.1 °C-15.6 °C70 %1015.6 hPa14.5 kmWest (280°)38.9 km/h0 mmOvercast
4:52 PM-12.2 °C-15.6 °C76 %1016.3 hPa6.4 kmWest (280°)40.7 km/h48.1 km/h0 mmSnowLight Snow
5:45 PM-13 °C-17 °C73 %1015.9 hPa11.3 kmWest (280°)44.4 km/h53.8 km/h0 mmOvercast
5:52 PM-12.8 °C-16.7 °C73 %1017.9 hPa12.9 kmWest (280°)42.6 km/h53.8 km/h0 mmOvercast
6:28 PM-13 °C-17 °C73 %1016.9 hPa14.5 kmWest (270°)40.7 km/h53.8 km/hOvercast
6:36 PM-13 °C-17 °C73 %1017.3 hPa9.7 kmWest (280°)33.3 km/h53.8 km/hHaze
6:52 PM-13.3 °C-17.2 °C73 %1019 hPa16.1 kmWest (280°)40.7 km/h50.1 km/hMostly Cloudy
7:27 PM-14 °C-18 °C72 %1018.3 hPa16.1 kmWNW (290°)27.8 km/h46.3 km/hScattered Clouds
7:52 PM-13.9 °C-17.8 °C73 %1020 hPa16.1 kmWNW (290°)38.9 km/h46.3 km/hMostly Cloudy
8:08 PM-14 °C-18 °C72 %1018.6 hPa16.1 kmWest (280°)37 km/h48.1 km/hMostly Cloudy
8:52 PM-14.4 °C-17.8 °C76 %1021 hPa14.5 kmWNW (290°)38.9 km/h48.1 km/hOvercast
9:38 PM-15 °C-19 °C72 %1020.3 hPa16.1 kmWNW (300°)38.9 km/h51.8 km/hOvercast
9:52 PM-15 °C-18.9 °C73 %1022 hPa16.1 kmWNW (290°)37 km/h48.1 km/hMostly Cloudy
10:52 PM-15.6 °C-19.4 °C73 %1022.7 hPa16.1 kmWNW (290°)37 km/h51.8 km/hPartly Cloudy
11:52 PM-16.1 °C-19.4 °C76 %1023.4 hPa16.1 kmWNW (290°)37 km/hClear
Hourly data recorded from KARR, located 0 kilometers away from Aurora, Illinois







STORIES FROM OUR PARTNERS